Погода в Осеке

Чехия     50°37′27″N   13°41′27″E
темп.,
°C
ветер,
м/с
пор.,
м/с
влажн.,
%
обл.,
%
осадки,
мм/ч
давл.,
гПа
погр.,
м
11 мая, вт
вт1123:00+16всв339433 0.0 100944
02:00+13всв2494100 0.0 100870
05:00+12всв239613 0.0 100750
08:00+14в348739 0.0 1007394
11:00+18юв2274100 0.0 1006757
14:00+20в116792 0.0 1005955
17:00+21сз116999 0.0 1004529
20:00+18с2386100 1.1 100471
12 мая, ср
ср1223:00+15ссз249699 2.9 1003201
02:00+14зсз2394100 5.4 1005159
05:00+13зсз2394100 0.8 1006158
08:00+12ссз2391100 1.0 1008306
11:00+13ссз2387100 0.0 1008451
14:00+12ссз2493100 1.6 1009315
17:00+13ссз458396 0.2 1008530
20:00+10ссз3689100 0.3 1008486
13 мая, чт
чт1323:00+9ссз3896100 0.3 1007555
02:00+9сз2597100 3.6 1006395
05:00+9сз3795100 4.1 1003382
08:00+9ссз41095100 12.6 1002517
11:00+9ссз3793100 12.1 1002406
14:00+10сз3691100 12.6 1002489
17:00+9зсз3795100 2.1 1003485
20:00+9зсз3694100 3.3 1003344
14 мая, пт
пт1423:00+8з3795100 5.7 1004384
02:00+7зюз4794100 9.1 1005375
05:00+7зюз4794100 2.8 1005399
08:00+6зюз3795100 5.4 1007369
11:00+7зюз3593100 0.9 1008447
14:00+9сз3783100 1.2 1009779
17:00+12сз4771100 0.0 1009966
20:00+10сз1182100 0.0 101013
15 мая, сб
сб1523:00+8ссз118852 0.0 101111
02:00+6ссз119157 0.0 101210
05:00+7с008995 0.0 101210
08:00+9ю0086100 0.0 101480
11:00+12юз137139 0.0 1014642
14:00+17юз244983 0.1 10122037
17:00+16зсз226456 0.5 1013575
20:00+12св11794 1.6 101310